[[{"header":{"parameterUnit":"m.s-1","parameterCategory":1,"la1":30.2991,"la2":30.254,"lo1":-89.0895,"lo2":-89.0444,"dy":0.0017,"dx":0.0017,"nx":28,"ny":28,"refTime":"2024-08-09T21:00:00:Z","depth":0,"parameterNumber":2,"parameterNumberName":"U-component_of_WINDS"},"data":[0,0,0,0,0,0,0,0,0,0,0,0,0,0,0,0,0,0,0,0,0,0,0,0,0,0,0,0,0,0,0,0,0,0,0,0,0,0,0,0,0,0,0,0,0,0,0,0,0,0,0,0,0,0,0,0,0,0,0.8673,0.8674,0,0.8769,0.877,0.8771,0.8807,0.8807,0.8807,0.8806,0.8908,0.8911,0.8914,0,0,0,0,0,0,0,0,0,0,0,0,0,0.8525,0.8527,0.8673,0.8674,0.8675,0.8769,0.877,0.8771,0.8807,0.8807,0.8806,0.8806,0.8907,0.8911,0.8915,0,0,0,0,0,0,0,0,0,0,0,0,0,0.8602,0.8528,0.8673,0.8704,0.8708,0.8768,0.877,0.8772,0.8807,0.8807,0.8806,0.8806,0.8906,0.8911,0.8915,0.8952,0,0,0.8929,0.8931,0,0,0,0,0,0,0,0,0.8597,0.8607,0.8699,0.8702,0.8707,0.8776,0.8755,0.8832,0.8807,0.877,0.8806,0.8806,0.8865,0.8873,0.8892,0.8957,0.8961,0.8929,0.8932,0.8934,0.8935,0,0,0,0,0,0,0,0.8592,0.8603,0.8711,0.87,0.8705,0.8715,0.8726,0.877,0.8819,0.8773,0.8776,0.8787,0.8867,0.8887,0.8895,0.8963,0.8929,0.8933,0.8936,0.8938,0.9063,0.9064,0,0,0,0,0,0,0.8581,0.8599,0.8708,0.8714,0.865,0.8718,0.873,0.8754,0.8818,0.8828,0.8787,0.8788,0.888,0.8889,0.8898,0.8946,0.8934,0.8938,0.8941,0.9063,0.9063,0.9064,0,0,0,0,0,0,0.8578,0.859,0.8704,0.8657,0.8672,0.8721,0.8748,0.8756,0.8777,0.8829,0.8838,0.8798,0.888,0.8892,0.8938,0.895,0.894,0.8944,0.9062,0.9063,0.9064,0.9041,0,0,0,0,0,0,0.8573,0.8589,0.8603,0.8657,0.8675,0.8741,0.8749,0.8758,0.8784,0.8786,0.8842,0.8851,0.888,0.8931,0.8943,0.8956,0.8948,0.9061,0.9062,0.9063,0.9041,0.9041,0.9041,0,0,0,0,0,0.8568,0.8593,0.8603,0.8616,0.8693,0.8742,0.8752,0.8784,0.8784,0.8799,0.8833,0.8849,0.8947,0.8936,0.8949,0.8964,0.9061,0.9062,0.9063,0.9041,0.9041,0.9041,0,0,0,0,0,0,0.854,0.8601,0.8613,0.8656,0.8693,0.8748,0.8767,0.8783,0.8823,0.8823,0.8863,0.8875,0.8918,0.8946,0.8932,0.9003,0.9005,0.9009,0.8983,0.8984,0.8984,0.8977,0.8952,0,0,0,0,0,0.8539,0.8573,0.8625,0.8658,0.8676,0.8718,0.8741,0.8762,0.8803,0.882,0.8857,0.8897,0.8936,0.8962,0.9001,0.9045,0.9058,0.9062,0.9062,0.9062,0.9065,0.9091,0.9093,0.9069,0.9069,0.9069,0,0,0.8538,0.8575,0.8594,0.8654,0.8685,0.872,0.8732,0.8768,0.8795,0.8826,0.8871,0.89,0.8947,0.8992,0.9014,0.9017,0.9075,0.9064,0.9063,0.9067,0.9092,0.9095,0.9097,0.907,0.907,0.9069,0,0,0.8552,0.8584,0.8615,0.8646,0.8693,0.8721,0.8728,0.878,0.88,0.8846,0.8869,0.8902,0.897,0.9002,0.9028,0.9055,0.9071,0.9066,0.9067,0.9092,0.9094,0.9095,0.9105,0.9108,0.9069,0.9069,0.9069,0,0.8545,0.8597,0.863,0.8665,0.8691,0.8718,0.8751,0.878,0.8838,0.8856,0.8857,0.8942,0.8976,0.9029,0.9035,0.9055,0.9065,0.906,0.909,0.9093,0.9095,0.9105,0.9108,0.9068,0.9069,0.9069,0.9069,0,0.8586,0.8622,0.8642,0.8695,0.8724,0.8757,0.8796,0.8821,0.8839,0.8867,0.8914,0.8956,0.9004,0.9018,0.9037,0.9074,0.9074,0.9082,0.9085,0.9096,0.9106,0.911,0.9067,0.9067,0.9068,0.9068,0,0,0.8587,0.8657,0.8664,0.8688,0.8742,0.8771,0.8806,0.8852,0.8873,0.8912,0.8943,0.8999,0.9007,0.9035,0.9059,0.908,0.9099,0.9086,0.9088,0.9087,0.9142,0.9135,0.9139,0.911,0.9111,0.9111,0.9138,0,0.8609,0.8672,0.8702,0.8752,0.8786,0.8813,0.8844,0.888,0.8907,0.8941,0.8972,0.9011,0.9018,0.9036,0.9058,0.9092,0.911,0.909,0.914,0.9142,0.9128,0.9144,0.9138,0.9161,0.9142,0.9143,0.9143,0,0.8643,0.868,0.8733,0.8783,0.8798,0.8825,0.8869,0.8901,0.8944,0.8962,0.8993,0.9016,0.9055,0.9054,0.9109,0.9095,0.9117,0.9137,0.9139,0.9145,0.9143,0.9151,0.9169,0.9172,0.915,0.9149,0.9149,0,0.8638,0.8702,0.8742,0.8762,0.8821,0.8839,0.8864,0.8906,0.8932,0.8971,0.8988,0.9032,0.9056,0.9089,0.9123,0.912,0.9175,0.9177,0.9192,0.9191,0.9203,0.9202,0.9224,0.9217,0.9217,0.9216,0.9216,0,0.866,0.8691,0.874,0.8765,0.8802,0.8836,0.8872,0.8899,0.8936,0.8967,0.8994,0.9023,0.9066,0.91,0.9127,0.9169,0.918,0.9196,0.9203,0.9194,0.9192,0.9209,0.9209,0.9217,0.9217,0.9217,0.9217,0,0.8661,0.8695,0.874,0.8791,0.8805,0.883,0.8874,0.89,0.8928,0.8967,0.8978,0.9023,0.9065,0.9102,0.9158,0.9176,0.9219,0.9227,0.9204,0.9208,0.922,0.9219,0.9255,0.9262,0.9249,0.9249,0.9249,0,0.8672,0.8697,0.875,0.8773,0.8797,0.8833,0.8859,0.8894,0.892,0.897,0.8989,0.9033,0.907,0.9136,0.9174,0.9217,0.9227,0.9237,0.9234,0.9224,0.9228,0.9226,0.9228,0.9237,0.9237,0.9237,0.9237,0,0.8689,0.8705,0.874,0.8782,0.8811,0.8846,0.8882,0.8899,0.8941,0.8969,0.9011,0.904,0.9096,0.914,0.9187,0.9214,0.9233,0.9237,0.9243,0.9234,0.922,0.9228,0.9204,0.9237,0.9237,0.9237,0.9237,0.9237,0.8696,0.8719,0.876,0.8799,0.8829,0.8862,0.8888,0.8919,0.8955,0.9003,0.9022,0.9065,0.9107,0.9172,0.92,0.9235,0.9238,0.9246,0.9249,0.925,0.9249,0.9214,0.9244,0.9244,0.9244,0.9244,0.9244,0,0.8715,0.8742,0.8778,0.8826,0.8856,0.887,0.891,0.8935,0.8972,0.9009,0.9045,0.9094,0.9136,0.9177,0.9221,0.9242,0.9251,0.9252,0.9251,0.9257,0.9243,0.9234,0.9244,0.9244,0.9244,0.9244,0.9243,0.9243,0.8728,0.8768,0.8788,0.8844,0.8871,0.8913,0.8935,0.8965,0.8995,0.9048,0.9083,0.9109,0.9148,0.9195,0.9234,0.9245,0.9261,0.9259,0.9273,0.9259,0.9258,0.9258,0.9249,0.9262,0.9262,0.9284,0.9284,0.9284]},{"header":{"parameterUnit":"m.s-1","parameterCategory":1,"la1":30.2991,"la2":30.254,"lo1":-89.0895,"lo2":-89.0444,"dy":0.0017,"dx":0.0017,"nx":28,"ny":28,"refTime":"2024-08-09T21:00:00:Z","depth":0,"parameterNumber":3,"parameterNumberName":"V-component_of_WINDS"},"data":[0,0,0,0,0,0,0,0,0,0,0,0,0,0,0,0,0,0,0,0,0,0,0,0,0,0,0,0,0,0,0,0,0,0,0,0,0,0,0,0,0,0,0,0,0,0,0,0,0,0,0,0,0,0,0,0,0,0,2.4751,2.4751,0,2.4768,2.4768,2.4768,2.4742,2.4741,2.4741,2.474,2.4756,2.4757,2.4758,0,0,0,0,0,0,0,0,0,0,0,0,0,2.4692,2.4694,2.4751,2.4751,2.4752,2.4768,2.4768,2.4768,2.4743,2.4741,2.474,2.4739,2.4755,2.4757,2.4758,0,0,0,0,0,0,0,0,0,0,0,0,0,2.4714,2.4694,2.4751,2.4741,2.474,2.4768,2.4768,2.4768,2.4743,2.4741,2.474,2.4739,2.4755,2.4756,2.4758,2.4797,0,0,2.4764,2.4765,0,0,0,0,0,0,0,0,2.4713,2.4717,2.4742,2.4741,2.4741,2.4752,2.4753,2.4778,2.4743,2.4742,2.474,2.4738,2.4755,2.4757,2.4763,2.4798,2.4798,2.4764,2.4765,2.4766,2.4767,0,0,0,0,0,0,0,2.4712,2.4716,2.4758,2.4742,2.4742,2.4734,2.4735,2.4758,2.4756,2.4742,2.474,2.4742,2.4755,2.4761,2.4763,2.4799,2.4764,2.4766,2.4767,2.4768,2.486,2.4861,0,0,0,0,0,0,2.4712,2.4715,2.4757,2.4758,2.4723,2.4736,2.4738,2.475,2.4755,2.4755,2.4743,2.4741,2.4759,2.4761,2.4764,2.4805,2.4766,2.4768,2.4769,2.4858,2.486,2.4861,0,0,0,0,0,0,2.4711,2.4716,2.4757,2.4736,2.4741,2.4738,2.4752,2.4751,2.4757,2.4757,2.4756,2.4751,2.4758,2.4761,2.4788,2.4805,2.4769,2.4771,2.4857,2.4859,2.4861,2.4891,0,0,0,0,0,0,2.4709,2.4716,2.4732,2.4737,2.4742,2.4782,2.4753,2.4752,2.4761,2.4758,2.4764,2.4763,2.4757,2.4785,2.479,2.4807,2.4772,2.4855,2.4858,2.486,2.4888,2.4894,2.4898,0,0,0,0,0,2.4707,2.4741,2.4733,2.4738,2.4762,2.4783,2.4786,2.4778,2.4762,2.4777,2.4776,2.4763,2.4803,2.4788,2.4793,2.4812,2.4854,2.4857,2.486,2.4886,2.4893,2.4898,0,0,0,0,0,0,2.4739,2.4741,2.4733,2.4769,2.4776,2.4779,2.4797,2.4786,2.4798,2.4795,2.4784,2.4786,2.4813,2.4816,2.4798,2.4846,2.4826,2.483,2.4844,2.485,2.4855,2.4853,2.4774,0,0,0,0,0,2.475,2.4768,2.4769,2.48,2.4804,2.48,2.4809,2.4802,2.4809,2.4812,2.4813,2.4819,2.4832,2.4842,2.4855,2.4889,2.4887,2.4904,2.4909,2.4913,2.4916,2.4929,2.4935,2.4871,2.4871,2.4871,0,0,2.4773,2.4777,2.4789,2.4806,2.4811,2.4827,2.4803,2.4823,2.4834,2.4815,2.4839,2.484,2.4846,2.4875,2.4888,2.4877,2.4933,2.4917,2.492,2.4921,2.4933,2.4939,2.4944,2.4873,2.4873,2.4872,0,0,2.4823,2.4829,2.4854,2.4858,2.4865,2.4861,2.4867,2.4871,2.487,2.4894,2.4879,2.4892,2.4917,2.492,2.4925,2.4971,2.4958,2.4976,2.5001,2.5015,2.502,2.5024,2.5037,2.5042,2.4979,2.4979,2.4979,0,2.4851,2.4876,2.4868,2.4887,2.4893,2.4876,2.4899,2.4904,2.4915,2.4918,2.4907,2.4934,2.4938,2.4965,2.4976,2.4982,2.4985,2.4975,2.502,2.5024,2.5028,2.504,2.5045,2.4981,2.4981,2.4981,2.4981,0,2.4907,2.4925,2.4944,2.4953,2.4962,2.4983,2.4976,2.4986,2.4977,2.4974,2.4996,2.4999,2.501,2.5016,2.501,2.5042,2.5034,2.5022,2.5,2.5036,2.5047,2.5052,2.4984,2.4983,2.4983,2.4982,0,0,2.4978,2.498,2.4987,2.4988,2.4993,2.5006,2.5025,2.5035,2.5041,2.5049,2.5062,2.5081,2.5068,2.5074,2.5067,2.5079,2.511,2.5064,2.5063,2.5069,2.5141,2.5148,2.5154,2.5102,2.5103,2.5104,2.5139,0,2.5024,2.5057,2.5048,2.508,2.5093,2.5075,2.5091,2.5095,2.5092,2.5101,2.5098,2.511,2.5094,2.5096,2.5108,2.5104,2.5124,2.5102,2.5112,2.5112,2.5108,2.5161,2.517,2.5203,2.5144,2.5144,2.5145,0,2.5083,2.509,2.5123,2.5121,2.5127,2.5141,2.5147,2.5158,2.516,2.5157,2.5161,2.515,2.5166,2.5146,2.5165,2.515,2.5154,2.5152,2.5153,2.5152,2.5129,2.5158,2.5214,2.5218,2.5152,2.5152,2.5151,0,2.5126,2.5145,2.5165,2.5168,2.5168,2.5177,2.5178,2.5178,2.5184,2.5189,2.5191,2.5199,2.5202,2.5207,2.5198,2.5185,2.5217,2.5197,2.5212,2.5213,2.5219,2.5218,2.5273,2.5226,2.5226,2.5226,2.5226,0,2.5177,2.5197,2.5184,2.5197,2.5217,2.5206,2.5226,2.5224,2.5224,2.5234,2.522,2.5229,2.5218,2.5225,2.5218,2.5233,2.5236,2.5232,2.5229,2.5231,2.5231,2.5232,2.5228,2.5227,2.5227,2.5226,2.5226,0,2.5228,2.5221,2.5241,2.5238,2.5238,2.5252,2.5249,2.5259,2.5254,2.5267,2.5269,2.5261,2.5269,2.5261,2.5269,2.5263,2.5283,2.5278,2.5282,2.5279,2.5294,2.5291,2.5349,2.5355,2.5306,2.5307,2.5307,0,2.5259,2.5273,2.5271,2.5276,2.5277,2.5287,2.5291,2.528,2.5285,2.5286,2.5296,2.5302,2.5307,2.532,2.5314,2.5319,2.5313,2.5332,2.5313,2.5314,2.5309,2.5307,2.5307,2.5336,2.5336,2.5337,2.5337,0,2.5314,2.5309,2.5316,2.5321,2.5327,2.533,2.5333,2.5338,2.5326,2.5332,2.534,2.5343,2.535,2.5355,2.5358,2.5357,2.5344,2.5343,2.5347,2.5348,2.5348,2.5345,2.5289,2.5342,2.5341,2.5341,2.5341,2.5341,2.5354,2.5364,2.5362,2.537,2.537,2.5372,2.538,2.5375,2.5382,2.5386,2.5379,2.5387,2.5386,2.5388,2.5387,2.5393,2.5384,2.539,2.539,2.5391,2.5392,2.5349,2.5394,2.5393,2.5393,2.5393,2.5393,0,2.5404,2.5402,2.5409,2.5412,2.5417,2.5405,2.5406,2.5411,2.5418,2.5418,2.5422,2.5429,2.5434,2.5427,2.543,2.5435,2.5429,2.5436,2.5435,2.5434,2.5401,2.5397,2.5441,2.5441,2.5441,2.5441,2.5441,2.5441,2.5431,2.5446,2.5441,2.5455,2.5452,2.546,2.5461,2.5462,2.5461,2.5469,2.5473,2.5469,2.5465,2.5467,2.547,2.5468,2.5468,2.5476,2.5472,2.5441,2.5436,2.5432,2.5427,2.5477,2.5477,2.5503,2.5504,2.5504]}]]